EW4496 Weather Reports


time (UTC)temp
F
wind
direction
speed
knots
gust
knots
rain 1hr
in
rain 24hr
in
rain mn
in
humidity
%
barometer
mb
20260831043056 71 4 0.0 0.0 0.00 0.00 0.00 54 1009.6
20260831041550 72 360 0.0 0.9 0.00 0.00 0.00 52 1009.5
20260831040050 74 328 0.0 3.5 0.00 0.00 0.00 46 1009.3
20260831034549 75 337 0.0 1.7 0.00 0.00 0.00 42 1009.1
20260831033105 76 338 0.0 4.3 0.00 0.00 0.00 42 1009.0
20260831031552 77 7 0.0 5.2 0.00 0.00 0.00 40 1008.8
20260831030051 79 330 0.0 2.6 0.00 0.00 0.00 38 1008.7
20260831024550 81 308 0.0 2.6 0.00 0.00 0.00 34 1008.7
20260831023055 83 340 0.0 3.5 0.00 0.00 0.00 33 1008.6
20260831021515 86 338 0.0 3.5 0.00 0.00 0.00 29 1008.5
20260831020009 88 347 0.0 6.1 0.00 0.00 0.00 29 1008.5
20260831014524 89 350 1.7 5.2 0.00 0.00 0.00 29 1008.5
20260831013024 90 10 0.9 5.2 0.00 0.00 0.00 29 1008.5
20260831011527 91 314 0.0 3.5 0.00 0.00 0.00 26 1008.5
20260831010035 92 310 0.0 4.3 0.00 0.00 0.00 24 1008.6
20260831004524 92 298 0.0 3.5 0.00 0.00 0.00 24 1008.6
20260831003024 92 344 0.0 3.5 0.00 0.00 0.00 23 1008.6
20260831001525 92 262 0.0 2.6 0.00 0.00 0.00 24 1008.7
20260831000034 92 278 0.0 4.3 0.00 0.00 0.00 25 1008.9
20260830234538 91 345 0.0 3.5 0.00 0.00 0.00 25 1008.9
20260830233041 91 318 0.0 5.2 0.00 0.00 0.00 25 1009.1
20260830231539 91 6 0.9 6.1 0.00 0.00 0.00 26 1009.3
20260830230038 91 319 0.0 6.1 0.00 0.00 0.00 25 1009.4
20260830224538 91 349 0.9 5.2 0.00 0.00 0.00 27 1009.6
20260830223038 90 6 0.0 6.1 0.00 0.00 0.00 26 1009.8
20260830221538 90 232 0.0 3.5 0.00 0.00 0.00 29 1010.0
20260830220039 89 251 0.0 5.2 0.00 0.00 0.00 30 1010.2
20260830214538 89 229 1.7 5.2 0.00 0.00 0.00 28 1010.4
20260830213052 88 321 0.0 5.2 0.00 0.00 0.00 33 1010.7
20260830211539 87 353 0.0 6.1 0.00 0.00 0.00 36 1010.9
20260830210038 86 350 0.0 5.2 0.00 0.00 0.00 36 1011.0
20260830204542 86 13 0.0 6.1 0.00 0.00 0.00 35 1011.2
20260830203013 85 3 0.0 3.5 0.00 0.00 0.00 37 1011.3
20260830201509 84 325 0.0 4.3 0.00 0.00 0.00 39 1011.4
20260830200008 83 333 0.0 5.2 0.00 0.00 0.00 41 1011.5
20260830194507 82 35 0.9 5.2 0.00 0.00 0.00 41 1011.6
20260830193015 81 9 0.0 4.3 0.00 0.00 0.00 42 1011.7
20260830191523 80 329 0.9 4.3 0.00 0.00 0.00 43 1012.0
20260830190007 78 307 0.0 2.6 0.00 0.00 0.00 46 1012.2
20260830184516 77 282 0.0 4.3 0.00 0.00 0.00 48 1012.3
20260830183007 76 350 0.0 1.7 0.00 0.00 0.00 48 1012.4
20260830181515 75 214 0.0 2.6 0.00 0.00 0.00 51 1012.5
20260830180054 75 261 0.0 2.6 0.00 0.00 0.00 51 1012.6
20260830174553 74 274 0.0 1.7 0.00 0.00 0.00 53 1012.6
20260830173052 72 256 0.0 0.0 0.00 0.00 0.00 56 1012.7
20260830171552 72 254 0.0 2.6 0.00 0.00 0.00 56 1012.6
20260830170052 72 240 0.0 0.9 0.00 0.00 0.00 57 1012.6
20260830164552 70 319 0.0 1.7 0.00 0.00 0.00 59 1012.6
20260830163051 70 249 0.0 0.9 0.00 0.00 0.00 60 1012.6
20260830161622 68 328 0.0 0.9 0.00 0.00 0.00 63 1012.6
20260830160106 67 245 0.0 1.7 0.00 0.00 0.00 63 1012.7
20260830154606 66 317 0.0 0.9 0.00 0.00 0.00 65 1012.7
20260830153020 65 265 0.0 3.5 0.00 0.00 0.00 65 1012.6
20260830151521 65 221 0.0 3.5 0.00 0.00 0.00 65 1012.6
20260830150035 64 240 0.0 0.0 0.00 0.00 0.00 67 1012.7
20260830144520 63 298 0.0 0.0 0.00 0.00 0.00 69 1012.6
20260830143021 62 333 0.0 0.0 0.00 0.00 0.00 68 1012.4
20260830141521 61 333 0.0 0.0 0.00 0.00 0.00 72 1012.3
20260830140020 58 333 0.0 0.0 0.00 0.00 0.00 76 1012.1
20260830134607 57 333 0.0 0.0 0.00 0.00 0.00 77 1011.9
20260830133105 57 291 0.0 0.0 0.00 0.00 0.00 78 1011.8
20260830131605 57 291 0.0 0.0 0.00 0.00 0.00 77 1011.7
20260830130111 57 290 0.0 0.0 0.00 0.00 0.00 77 1011.6
20260830124608 57 290 0.0 0.0 0.00 0.00 0.00 77 1011.5
20260830123105 57 290 0.0 0.0 0.00 0.00 0.00 76 1011.3
20260830121605 57 290 0.0 0.0 0.00 0.00 0.00 75 1011.3
20260830120107 58 290 0.0 0.0 0.00 0.00 0.00 74 1011.4
20260830114617 59 290 0.0 0.0 0.00 0.00 0.00 72 1011.4
20260830113105 58 290 0.0 0.0 0.00 0.00 0.00 74 1011.4
20260830111505 58 290 0.0 0.0 0.00 0.00 0.00 72 1011.4
20260830110023 58 290 0.0 0.0 0.00 0.00 0.00 72 1011.3
20260830104519 59 290 0.0 0.0 0.00 0.00 0.00 72 1011.2
20260830103020 59 290 0.0 0.0 0.00 0.00 0.00 72 1011.1
20260830101535 59 290 0.0 0.0 0.00 0.00 0.00 72 1011.2
20260830100019 59 290 0.0 0.0 0.00 0.00 0.00 72 1011.1
20260830094520 60 290 0.0 0.0 0.00 0.00 0.00 70 1011.1
20260830093020 61 291 0.0 0.0 0.00 0.00 0.00 68 1011.1
20260830091519 61 302 0.0 1.7 0.00 0.00 0.00 68 1011.2
20260830090046 61 254 0.0 0.0 0.00 0.00 0.00 68 1011.2
20260830084527 61 244 0.0 0.0 0.00 0.00 0.00 70 1011.2
20260830083036 61 15 0.0 0.0 0.00 0.00 0.00 67 1011.2
20260830081524 62 15 0.0 0.0 0.00 0.00 0.00 67 1011.2
20260830080019 62 15 0.0 0.0 0.00 0.00 0.00 67 1011.1
20260830074518 63 257 0.0 0.0 0.00 0.00 0.00 65 1011.2
20260830073018 64 244 0.0 2.6 0.00 0.00 0.00 63 1011.2
20260830071520 64 256 0.0 2.6 0.00 0.00 0.00 62 1011.1
20260830070045 65 235 0.0 2.6 0.00 0.00 0.00 62 1011.3
20260830064543 65 257 0.0 0.0 0.00 0.00 0.00 62 1011.2
20260830063043 65 313 0.0 0.0 0.00 0.00 0.00 62 1011.3
20260830061544 65 313 0.0 0.0 0.00 0.00 0.00 60 1011.3
20260830060058 66 314 0.0 3.5 0.00 0.00 0.00 59 1011.4
20260830054612 66 13 0.0 0.0 0.00 0.00 0.00 59 1011.2
20260830053059 67 244 0.0 0.0 0.00 0.00 0.00 58 1011.3
20260830051558 67 243 0.0 0.0 0.00 0.00 0.00 57 1011.3
20260830050058 67 243 0.0 0.0 0.00 0.00 0.00 57 1011.4
20260830044617 68 245 0.0 2.6 0.00 0.00 0.00 54 1011.1